User: anonymous   Login
Location: Santa Barbara
(34.4500°N, 119.7700°W)
Time: 20:02:54
(UTC-07:00)
Language:

Cosmos 1626 Rocket - Orbit

View from above orbital plane
View from above orbital plane
View from above satellite
View from above satellite

Ground track
Ground track

The orbit data is extracted from the following two-line orbital elements,

1 15495U 85009B   14295.75425761  .00000681  00000-0  80061-4 0  9246
2 15495 082.5271 014.3708 0018779 284.4014 075.5116 14.83318806606378
Epoch (UTC): 22 October 2014 18:06:07
Eccentricity: 0.0018779
inclination: 82.5271°
perigee height: 606 km
apogee height: 632 km
right ascension of ascending node: 14.3708°
argument of perigee: 284.4014°
revolutions per day: 14.83318806
mean anomaly at epoch: 75.5116°
orbit number at epoch: 60637

The dashed part of the orbit path shows where the satellite is in the earth's shadow,  

DLR